Wind_Speed
7 7 7 9 10 10 10 8 6 7 8 8 9 10 12 11 11 9 6 5 5 5 5 5 6 8 11 13 14 15 18 19 21 20 20 17 17 15 18 13 9 8 8 7 7 10 13
7 8 9 9 10 11 12 11 8 8 9 9 8 9 11 12 12 10 8 8 7 7 7 8 9 11 13 13 12 13 13 13 16 18 15 12 9 8 15 10 13 9 8 12 14 16 17
9 9 9 10 11 12 12 14 12 9 10 11 10 9 10 13 14 12 10 9 10 9 9 10 11 13 13 13 12 13 12 14 15 10 5 4 4 4 8 10 11 14 12 14 15 17 14
8 9 9 10 11 13 13 14 15 12 12 12 12 10 10 14 16 14 13 13 13 13 12 13 13 13 12 12 12 12 12 12 13 12 10 11 10 12 15 12 9 8 10 12 12 13 14
10 10 11 11 12 12 14 15 16 15 13 13 14 13 11 15 18 16 16 16 16 14 13 12 11 11 12 12 10 10 10 8 8 10 11 10 14 19 16 13 8 7 7 9 12 13 7
11 12 12 13 14 14 14 14 15 17 15 15 15 14 11 18 20 18 18 18 16 15 14 14 12 11 11 11 10 8 8 8 6 9 12 12 15 17 13 11 6 6 7 4 8 12 7
13 13 12 12 13 14 15 14 14 18 17 16 16 15 13 20 21 20 19 17 15 13 11 12 13 11 8 9 9 7 6 6 6 8 11 12 15 16 13 11 5 5 5 6 5 10 6
12 12 12 12 12 13 13 16 17 16 17 16 17 16 17 22 22 20 20 19 19 15 13 12 10 11 10 5 5 4 4 5 7 9 10 13 15 17 16 14 4 7 3 4 3 9 4
12 12 12 12 12 12 13 14 15 16 18 17 19 19 20 23 22 22 22 21 19 18 16 13 10 9 7 6 5 5 7 7 9 9 10 12 12 14 14 6 2 4 5 5 7 2 1
13 13 13 14 14 14 13 14 15 16 18 17 20 21 22 25 24 25 22 21 19 18 14 10 8 7 8 6 6 8 8 9 11 12 14 13 11 15 11 7 7 5 5 6 9 10 7
15 14 13 14 14 13 13 12 14 15 15 16 21 23 24 26 28 27 24 20 18 16 11 9 8 7 7 6 6 7 9 9 9 8 11 8 6 4 7 9 5 2 9 8 5 8 7
14 15 15 15 13 13 13 11 13 14 15 14 20 25 25 29 29 27 24 19 15 14 11 7 7 7 7 5 3 3 4 3 5 10 15 12 11 7 6 4 8 11 14 6 6 5 4
10 12 11 13 12 14 13 11 12 13 15 16 17 27 27 31 30 26 22 18 13 12 12 7 4 4 4 2 2 4 11 15 21 18 16 13 9 7 8 7 9 16 14 6 8 14 8
10 10 12 14 11 11 11 9 10 15 16 19 15 27 29 31 30 28 22 16 14 13 13 11 10 14 3 5 10 14 13 13 17 17 15 12 7 13 11 8 7 17 14 5 9 9 6
9 10 11 8 6 6 7 7 7 13 17 20 15 26 31 33 32 28 24 19 16 13 13 13 11 10 4 9 16 8 10 11 17 16 9 4 8 13 7 8 8 13 16 14 4 2 9
9 10 9 8 6 6 6 4 7 11 16 21 16 26 31 32 32 28 22 23 20 15 10 15 8 8 7 3 6 5 2 13 19 11 6 7 15 10 9 9 7 9 14 10 11 14 11
9 10 7 6 6 5 3 3 7 11 15 20 16 27 34 33 31 27 24 23 24 21 10 13 10 16 15 14 12 10 12 13 11 6 6 13 13 11 10 17 17 16 17 15 12 17 20
11 10 8 6 6 5 1 4 9 12 15 15 18 29 34 32 30 27 27 29 27 25 21 21 18 25 19 25 25 23 19 21 19 20 13 16 24 18 15 18 17 16 18 19 18 13 24
7 8 8 6 6 5 1 5 9 11 13 14 22 28 31 30 27 27 31 33 32 29 23 26 26 25 18 8 8 25 22 21 22 18 8 11 18 25 27 27 28 24 23 22 22 23 25
6 7 7 6 6 6 2 5 8 10 13 19 24 28 28 28 28 28 31 32 32 29 28 22 27 32 28 21 18 20 22 24 19 16 14 21 21 22 23 32 33 33 28 30 30 32 32
6 6 6 6 6 6 4 4 7 9 13 18 20 21 27 28 27 28 29 32 31 30 27 24 22 28 31 33 31 31 29 30 23 16 11 18 19 18 17 20 26 27 31 32 35 36 35
5 6 6 6 5 6 5 4 7 10 13 15 18 16 22 29 33 33 33 31 32 31 29 28 28 26 27 25 33 35 33 26 27 26 19 21 20 19 19 22 25 23 28 32 36 39 38
5 4 5 5 5 5 5 5 6 10 13 16 19 17 19 25 30 33 34 31 30 31 30 27 21 21 22 19 17 21 28 29 30 25 19 20 22 22 19 25 23 24 28 32 32 33 34
5 6 4 3 3 3 2 2 4 6 9 12 14 17 19 21 29 32 33 32 32 32 31 28 20 15 17 18 20 23 23 25 25 24 25 24 23 23 20 25 24 28 30 31 30 31 30
5 5 4 4 3 3 2 2 3 5 7 10 12 16 19 19 24 27 24 24 22 26 26 25 22 21 20 21 21 20 20 22 25 27 27 27 27 27 24 25 26 30 29 29 27 30 32
6 6 6 5 5 4 3 3 6 8 9 11 12 15 18 17 17 16 18 17 20 19 24 27 23 16 19 22 24 22 22 25 29 29 29 29 29 27 25 26 29 28 28 29 29 34 33
10 10 9 8 8 7 8 7 6 7 12 14 15 17 18 17 15 16 18 20 23 23 26 25 22 22 23 24 25 26 25 29 29 31 31 30 27 25 25 27 31 29 27 25 30 33 35
16 15 15 14 13 12 11 11 11 11 10 13 19 20 20 19 17 20 22 24 23 25 27 26 25 24 23 26 26 27 27 29 29 30 30 29 30 27 27 27 30 29 28 29 32 35 38
21 21 20 19 19 18 16 15 14 14 13 12 13 17 22 22 22 23 23 24 25 26 28 29 29 28 24 25 26 29 28 28 27 27 28 29 28 29 28 29 30 30 31 33 35 38 41
Wind_Direction
271 267 257 251 245 241 240 254 275 223 218 217 213 215 218 212 206 202 194 180 169 164 151 136 125 143 171 181 184 188 197 197 196 200 205 208 216 226 229 199 117 117 109 110 94 67 48
264 263 263 256 249 240 237 242 256 233 222 216 220 216 215 210 202 197 189 180 175 166 150 135 128 126 132 137 145 162 176 186 197 206 210 201 209 246 229 133 114 107 98 79 46 45 27
277 268 261 259 255 246 238 237 245 239 227 222 220 220 217 207 197 193 186 179 167 157 148 140 133 133 134 135 135 131 132 143 163 183 136 172 205 210 147 130 129 128 111 78 54 32 34
288 283 274 266 259 250 243 238 235 241 231 226 222 221 220 205 191 189 182 173 162 152 143 137 134 132 130 130 129 132 136 151 159 162 163 151 144 139 141 131 112 111 102 72 66 44 25
295 292 286 276 263 255 248 239 235 236 236 228 224 223 218 201 190 185 179 173 164 157 153 148 145 142 138 132 129 135 131 143 167 162 149 151 155 144 146 126 113 100 67 62 64 66 39
299 296 290 283 274 259 251 244 235 233 234 230 227 221 210 193 187 183 178 175 169 162 157 150 145 146 148 137 131 133 138 129 139 159 151 155 145 148 158 159 142 110 36 57 31 38 56
302 299 292 281 273 266 252 244 238 235 234 233 225 216 203 187 186 184 179 173 168 161 157 150 146 143 145 145 148 159 144 146 164 170 156 167 163 170 194 220 230 139 291 256 329 345 86
305 299 298 290 277 269 262 248 242 239 226 228 222 212 195 184 184 181 177 173 167 165 167 161 157 155 155 168 167 177 177 184 196 184 185 185 193 189 207 238 99 53 33 274 275 292 111
301 296 294 291 285 279 267 254 240 235 230 226 220 208 192 184 182 179 179 173 169 166 166 164 167 179 191 192 223 226 231 229 219 205 211 204 214 215 209 188 137 147 197 140 180 243 152
295 297 295 292 285 278 272 262 248 239 236 224 214 204 190 184 182 180 177 173 168 168 169 170 191 211 224 228 229 250 249 241 223 217 204 217 219 214 190 159 170 191 231 155 132 160 177
290 290 291 290 283 278 279 267 248 236 225 214 209 199 190 184 179 179 177 175 173 169 176 186 213 230 249 244 241 255 252 226 219 213 223 217 233 196 155 168 172 131 119 114 123 156 169
293 289 288 290 278 277 275 269 249 232 219 212 204 195 188 181 179 179 178 174 178 171 136 177 217 236 243 245 261 229 171 176 173 150 170 143 117 115 137 157 164 159 131 125 115 166 174
298 304 286 290 279 283 276 268 246 229 214 209 206 193 187 182 181 180 179 175 176 186 178 136 131 357 290 320 138 158 114 111 132 135 132 129 131 131 144 154 175 153 131 162 129 105 124
312 299 306 317 280 272 273 274 243 217 209 203 206 192 186 185 185 181 176 171 183 188 183 144 64 360 3 141 139 135 127 153 163 162 164 145 121 137 144 141 161 197 166 171 215 160 304
327 308 322 311 301 296 292 274 229 206 200 195 201 191 187 188 187 187 176 169 170 186 178 126 62 44 95 122 103 126 174 201 199 196 189 157 197 156 130 161 183 202 201 224 188 143 304
334 313 323 325 322 313 303 257 207 196 192 188 197 189 186 190 191 185 179 172 179 201 204 155 142 255 253 239 86 34 243 218 182 184 194 189 224 207 164 100 161 192 210 239 237 205 233
30 11 352 338 333 331 313 216 190 186 185 184 200 187 187 189 189 184 171 183 189 207 184 153 163 224 227 233 196 210 229 249 259 208 224 238 209 228 193 166 179 204 205 210 231 229 235
358 357 358 349 345 349 359 180 179 177 178 188 186 183 187 189 187 181 173 185 195 201 185 175 204 232 239 249 197 208 206 236 264 270 255 231 220 212 222 232 217 226 228 227 227 206 234
353 360 6 6 2 8 71 166 173 177 179 180 177 181 184 187 184 182 188 200 207 216 210 198 208 240 247 190 221 196 227 231 246 253 271 255 243 235 232 239 245 245 241 243 248 234 238
360 3 14 24 21 23 73 155 169 168 171 174 175 178 181 183 185 188 196 210 218 222 228 214 221 224 236 241 237 235 236 246 264 289 297 280 260 245 235 237 245 243 242 239 241 250 257
6 13 14 25 37 40 72 144 167 162 170 171 169 175 183 184 187 195 208 216 226 231 226 235 232 234 237 232 239 257 267 273 284 304 319 269 258 259 256 249 251 248 246 248 245 252 254
14 19 19 25 31 46 69 112 151 157 167 168 164 180 195 194 196 197 211 217 230 240 245 241 240 239 239 239 246 254 269 275 281 281 270 245 258 258 256 251 250 249 249 249 253 257 264
20 21 20 20 32 44 61 91 132 162 172 171 172 178 200 211 210 215 221 220 232 243 250 253 251 254 264 252 245 251 259 265 267 272 264 247 253 262 258 258 259 256 254 256 258 258 257
24 30 20 3 360 18 47 83 132 165 183 187 191 197 206 217 219 224 230 231 230 239 249 259 268 252 246 245 243 244 250 255 264 269 270 274 272 269 261 260 257 262 263 267 272 271 270
342 341 357 22 20 350 296 252 214 197 199 200 204 209 219 220 217 218 236 245 260 268 264 261 255 258 260 256 256 255 254 257 261 265 272 275 278 276 270 263 265 267 272 277 276 277 280
340 340 336 326 302 307 313 275 248 243 231 218 214 217 226 231 233 238 244 243 249 237 240 251 258 255 252 259 265 266 265 266 265 269 271 271 271 273 274 269 267 269 270 275 280 280 283
303 309 311 312 310 295 281 272 267 255 244 240 235 231 233 235 232 236 237 241 246 248 247 253 262 263 266 262 262 265 265 264 267 271 273 277 279 271 262 266 274 277 276 273 274 282 284
288 293 294 291 289 288 281 271 264 263 259 249 243 242 243 246 240 243 242 247 250 253 258 260 258 256 252 261 267 267 266 267 269 274 279 280 280 283 284 283 280 280 279 281 287 291 291
282 284 288 287 282 275 271 269 266 259 256 258 256 249 247 248 248 249 253 255 257 257 260 264 267 268 269 267 264 263 262 261 263 262 266 270 277 282 286 285 283 288 294 295 291 290 292
Height
5878 5878 5878 5878 5879 5879 5879 5879 5879 5880 5880 5880 5881 5882 5883 5885 5887 5888 5889 5889 5889 5890 5890 5891 5891 5891 5893 5896 5898 5901 5903 5905 5907 5910 5910 5913 5914 5916 5917 5917 5918 5920 5921 5921 5921 5921 5920
5874 5874 5875 5875 5875 5876 5877 5877 5877 5877 5878 5878 5879 5880 5881 5883 5885 5887 5888 5889 5890 5890 5891 5892 5893 5893 5895 5897 5898 5900 5903 5906 5908 5909 5911 5915 5916 5915 5917 5917 5918 5920 5921 5920 5920 5920 5919
5872 5871 5871 5871 5872 5872 5873 5874 5875 5875 5876 5876 5877 5878 5879 5881 5883 5885 5887 5889 5890 5891 5892 5893 5894 5896 5897 5899 5900 5901 5905 5907 5909 5910 5913 5915 5916 5917 5918 5919 5919 5917 5921 5920 5921 5922 5922
5869 5868 5868 5867 5867 5868 5869 5870 5871 5872 5873 5874 5875 5876 5878 5879 5882 5884 5886 5889 5891 5892 5894 5895 5896 5898 5899 5901 5903 5904 5906 5908 5910 5911 5913 5914 5916 5919 5920 5920 5920 5919 5920 5921 5922 5923 5923
5866 5865 5865 5864 5864 5864 5865 5866 5867 5869 5870 5871 5872 5874 5875 5877 5880 5883 5886 5888 5891 5893 5895 5896 5898 5899 5901 5902 5904 5906 5907 5909 5910 5911 5912 5914 5916 5917 5919 5919 5920 5921 5921 5921 5922 5924 5924
5863 5862 5861 5860 5860 5860 5861 5862 5863 5865 5867 5868 5870 5871 5873 5875 5879 5882 5885 5888 5891 5894 5895 5897 5899 5902 5903 5904 5905 5906 5908 5908 5911 5911 5913 5914 5915 5917 5919 5919 5919 5919 5922 5921 5922 5925 5924
5859 5858 5857 5857 5856 5855 5856 5857 5859 5861 5863 5865 5867 5868 5870 5873 5877 5881 5885 5889 5894 5896 5898 5900 5900 5901 5903 5904 5905 5907 5908 5909 5911 5912 5913 5913 5915 5916 5918 5918 5918 5917 5921 5922 5923 5923 5923
5855 5855 5853 5853 5852 5852 5852 5853 5854 5856 5858 5861 5863 5866 5868 5872 5876 5880 5884 5887 5891 5894 5898 5900 5902 5902 5903 5905 5906 5906 5907 5909 5910 5912 5912 5914 5913 5914 5915 5916 5916 5919 5920 5921 5922 5922 5922
5853 5852 5851 5849 5849 5849 5848 5848 5849 5851 5854 5857 5860 5863 5866 5870 5875 5879 5882 5886 5890 5892 5896 5899 5901 5902 5904 5905 5905 5906 5907 5907 5908 5910 5912 5912 5914 5914 5915 5915 5917 5918 5919 5919 5921 5922 5922
5850 5849 5847 5846 5845 5845 5845 5845 5845 5846 5849 5852 5855 5860 5863 5868 5874 5877 5882 5886 5889 5892 5896 5899 5900 5902 5902 5903 5904 5903 5903 5905 5906 5907 5908 5911 5912 5912 5913 5915 5917 5918 5918 5920 5919 5919 5920
5847 5845 5844 5843 5842 5841 5841 5841 5841 5843 5845 5848 5851 5856 5861 5866 5871 5875 5880 5885 5889 5892 5896 5898 5898 5899 5900 5902 5902 5901 5901 5901 5902 5904 5909 5910 5910 5911 5912 5914 5916 5919 5919 5917 5919 5920 5921
5843 5842 5841 5839 5839 5838 5838 5837 5837 5839 5842 5845 5848 5853 5859 5864 5870 5875 5880 5885 5889 5894 5895 5897 5897 5898 5898 5899 5899 5899 5899 5900 5902 5905 5905 5907 5908 5909 5912 5914 5916 5917 5917 5918 5920 5921 5922
5840 5838 5837 5836 5835 5835 5834 5833 5833 5835 5838 5842 5845 5850 5857 5862 5868 5874 5880 5884 5889 5889 5891 5893 5894 5895 5896 5897 5896 5898 5898 5901 5903 5904 5904 5905 5906 5910 5912 5914 5916 5916 5917 5918 5920 5918 5919
5837 5836 5834 5832 5831 5831 5831 5830 5830 5832 5835 5839 5843 5848 5854 5860 5866 5872 5879 5884 5887 5887 5888 5891 5892 5895 5894 5896 5896 5898 5899 5902 5902 5902 5902 5904 5909 5909 5910 5912 5915 5916 5916 5916 5917 5917 5917
5835 5833 5832 5830 5829 5828 5827 5826 5827 5829 5832 5836 5840 5845 5852 5858 5864 5871 5878 5882 5884 5885 5887 5888 5892 5896 5896 5896 5895 5898 5900 5902 5901 5902 5903 5905 5907 5906 5909 5911 5914 5914 5915 5914 5916 5916 5914
5833 5831 5830 5828 5827 5826 5825 5824 5825 5827 5830 5834 5838 5843 5849 5856 5863 5870 5878 5879 5883 5882 5887 5885 5887 5892 5895 5895 5894 5897 5898 5897 5898 5900 5903 5905 5907 5905 5906 5910 5912 5912 5912 5913 5913 5914 5912
5832 5830 5828 5827 5826 5824 5823 5823 5824 5826 5829 5833 5836 5840 5847 5854 5862 5870 5875 5877 5879 5881 5885 5885 5887 5889 5889 5892 5895 5897 5896 5897 5897 5900 5902 5902 5904 5906 5908 5906 5905 5905 5906 5907 5909 5911 5908
5832 5830 5828 5826 5825 5823 5822 5822 5823 5825 5828 5832 5834 5838 5845 5853 5861 5868 5872 5873 5875 5878 5883 5884 5887 5884 5889 5888 5890 5893 5893 5894 5894 5895 5897 5898 5900 5902 5905 5903 5903 5903 5902 5903 5904 5906 5904
5832 5830 5828 5826 5824 5823 5822 5822 5823 5825 5828 5830 5833 5838 5845 5852 5860 5865 5867 5868 5871 5874 5881 5884 5883 5882 5883 5887 5886 5887 5890 5889 5890 5892 5895 5897 5898 5899 5902 5901 5900 5900 5899 5899 5899 5900 5899
5832 5830 5828 5826 5825 5823 5823 5823 5824 5826 5828 5830 5833 5838 5845 5851 5857 5861 5864 5866 5868 5872 5874 5880 5881 5880 5883 5884 5882 5884 5885 5886 5887 5889 5892 5891 5891 5892 5894 5893 5893 5894 5896 5895 5895 5894 5893
5832 5830 5829 5827 5826 5825 5824 5823 5825 5827 5829 5832 5836 5841 5845 5850 5855 5857 5860 5862 5864 5868 5872 5873 5875 5877 5878 5880 5880 5879 5880 5881 5884 5885 5887 5885 5885 5888 5890 5889 5888 5889 5891 5890 5888 5887 5887
5831 5830 5829 5828 5827 5826 5825 5825 5826 5828 5830 5833 5837 5841 5845 5847 5849 5852 5853 5859 5861 5862 5865 5867 5869 5872 5874 5877 5879 5878 5876 5876 5877 5879 5881 5881 5880 5882 5882 5881 5881 5884 5882 5881 5880 5880 5880
5832 5831 5830 5829 5828 5827 5826 5826 5827 5829 5830 5833 5836 5839 5843 5845 5848 5850 5851 5854 5856 5858 5859 5860 5866 5868 5869 5872 5874 5875 5873 5872 5871 5872 5874 5875 5875 5875 5877 5875 5876 5876 5873 5871 5873 5873 5873
5831 5831 5830 5829 5828 5828 5828 5827 5828 5829 5831 5833 5836 5838 5840 5841 5844 5846 5847 5850 5851 5853 5854 5857 5859 5862 5863 5863 5864 5865 5866 5867 5867 5867 5865 5866 5868 5869 5870 5868 5869 5867 5865 5864 5864 5863 5864
5830 5830 5830 5829 5828 5828 5828 5828 5828 5829 5830 5832 5833 5835 5836 5837 5840 5843 5845 5848 5853 5854 5853 5853 5855 5855 5856 5857 5858 5860 5861 5861 5860 5860 5860 5859 5859 5860 5862 5861 5861 5858 5859 5858 5857 5855 5852
5829 5829 5828 5828 5827 5827 5827 5827 5827 5828 5829 5830 5831 5832 5833 5836 5838 5841 5843 5845 5847 5847 5846 5845 5848 5852 5852 5851 5851 5853 5854 5853 5852 5852 5852 5852 5853 5854 5853 5852 5851 5853 5852 5850 5849 5846 5846
5827 5827 5826 5825 5825 5825 5825 5825 5825 5825 5826 5827 5827 5828 5829 5832 5835 5836 5838 5839 5840 5840 5840 5841 5844 5843 5844 5844 5845 5846 5847 5845 5844 5843 5845 5845 5845 5845 5845 5844 5842 5843 5844 5843 5841 5840 5835
5823 5822 5822 5822 5821 5821 5821 5821 5821 5821 5822 5822 5823 5824 5826 5827 5830 5830 5831 5831 5833 5833 5833 5835 5837 5837 5839 5838 5839 5838 5838 5837 5838 5837 5836 5836 5835 5837 5836 5836 5834 5833 5833 5833 5831 5827 5823
5817 5816 5816 5816 5816 5816 5816 5816 5816 5817 5817 5817 5818 5819 5820 5822 5824 5823 5825 5826 5826 5827 5827 5827 5828 5829 5832 5831 5831 5829 5830 5830 5830 5830 5830 5829 5829 5829 5830 5827 5823 5822 5821 5819 5817 5813 5809